• en Suisse
  • Liste des pays
  • À 7 jours
  • Température de l'eau
  • Carte satellitaire
  • Carte météo
  • Widgets météo
  • user-avatar
    Se connecter

    Météo par heure à Bereznyagi

    Ce jour, 18 Juillet, Mercredi

    Heure Température Précipitation Vent Pression Humidité
    00:00 +20°C° 0 mm 4 m/s 736 mmHg 94%
    01:00 +19°C° 0 mm 4 m/s 736 mmHg 95%
    02:00 +19°C° 0 mm 4 m/s 736 mmHg 95%
    03:00 +19°C° 0 mm 4 m/s 736 mmHg 96%
    04:00 +19°C° 0,2 mm 4 m/s 735 mmHg 96%
    05:00 +19°C° 0,2 mm 5 m/s 735 mmHg 95%
    06:00 +19°C° 0,2 mm 6 m/s 735 mmHg 95%
    07:00 +20°C° 0,2 mm 6 m/s 735 mmHg 94%
    08:00 +20°C° 0,2 mm 6 m/s 735 mmHg 94%
    09:00 +20°C° 0 mm 6 m/s 734 mmHg 93%
    10:00 +21°C° 0,4 mm 6 m/s 734 mmHg 91%
    11:00 +21°C° 0,4 mm 6 m/s 734 mmHg 89%
    12:00 +22°C° 0,4 mm 6 m/s 734 mmHg 87%
    13:00 +22°C° 0,5 mm 6 m/s 734 mmHg 86%
    14:00 +23°C° 0,5 mm 6 m/s 734 mmHg 85%
    15:00 +23°C° 0,5 mm 6 m/s 734 mmHg 84%
    16:00 +23°C° 0,5 mm 6 m/s 734 mmHg 85%
    17:00 +23°C° 0,5 mm 6 m/s 734 mmHg 86%
    18:00 +23°C° 0,5 mm 5 m/s 734 mmHg 86%
    19:00 +22°C° 0,2 mm 5 m/s 734 mmHg 89%
    20:00 +21°C° 0,2 mm 5 m/s 734 mmHg 92%
    21:00 +20°C° 0,2 mm 4 m/s 734 mmHg 94%
    22:00 +20°C° 0 mm 4 m/s 734 mmHg 95%
    23:00 +20°C° 0 mm 5 m/s 734 mmHg 96%

    Demain, 19 Juillet, Jeudi

    Heure Température Précipitation Vent Pression Humidité
    00:00 +19°C° 0 mm 5 m/s 734 mmHg 97%
    01:00 +19°C° 0,1 mm 5 m/s 734 mmHg 97%
    02:00 +19°C° 0,1 mm 5 m/s 734 mmHg 96%
    03:00 +19°C° 0,1 mm 5 m/s 734 mmHg 96%
    04:00 +19°C° 0,3 mm 5 m/s 734 mmHg 96%
    05:00 +19°C° 0,3 mm 5 m/s 734 mmHg 96%
    06:00 +19°C° 0,3 mm 5 m/s 734 mmHg 96%
    07:00 +19°C° 0,5 mm 5 m/s 734 mmHg 96%
    08:00 +19°C° 0,5 mm 5 m/s 734 mmHg 95%
    09:00 +20°C° 0,5 mm 5 m/s 735 mmHg 94%
    10:00 +20°C° 0,6 mm 4 m/s 735 mmHg 94%
    11:00 +20°C° 0,6 mm 4 m/s 735 mmHg 93%
    12:00 +21°C° 0,6 mm 4 m/s 735 mmHg 92%
    13:00 +21°C° 0,8 mm 4 m/s 735 mmHg 90%
    14:00 +22°C° 0,8 mm 4 m/s 735 mmHg 88%
    15:00 +23°C° 0,8 mm 4 m/s 735 mmHg 86%
    16:00 +23°C° 1 mm 4 m/s 735 mmHg 86%
    17:00 +23°C° 1 mm 4 m/s 735 mmHg 86%
    18:00 +23°C° 1 mm 4 m/s 735 mmHg 86%
    19:00 +22°C° 0,8 mm 4 m/s 735 mmHg 89%
    20:00 +22°C° 0,8 mm 3 m/s 735 mmHg 91%
    21:00 +21°C° 0,8 mm 3 m/s 735 mmHg 93%
    22:00 +20°C° 0,1 mm 3 m/s 735 mmHg 94%
    23:00 +20°C° 0,1 mm 3 m/s 735 mmHg 95%

    Après-demain, 20 Juillet, Vendredi

    Heure Température Précipitation Vent Pression Humidité
    00:00 +19°C° 0,1 mm 3 m/s 735 mmHg 96%
    01:00 +19°C° 0,3 mm 3 m/s 736 mmHg 96%
    02:00 +19°C° 0,3 mm 3 m/s 736 mmHg 96%
    03:00 +19°C° 0,3 mm 3 m/s 736 mmHg 97%
    04:00 +19°C° 0,3 mm 3 m/s 736 mmHg 96%
    05:00 +19°C° 0,3 mm 3 m/s 736 mmHg 96%
    06:00 +19°C° 0,3 mm 4 m/s 736 mmHg 95%
    07:00 +21°C° 0 mm 4 m/s 737 mmHg 93%
    08:00 +22°C° 0 mm 4 m/s 737 mmHg 90%
    09:00 +23°C° 0 mm 4 m/s 737 mmHg 87%
    10:00 +25°C° 0,6 mm 4 m/s 737 mmHg 84%
    11:00 +26°C° 0,6 mm 4 m/s 737 mmHg 80%
    12:00 +27°C° 0,6 mm 4 m/s 738 mmHg 77%
    13:00 +27°C° 1,2 mm 4 m/s 738 mmHg 76%
    14:00 +27°C° 1,2 mm 5 m/s 738 mmHg 74%
    15:00 +28°C° 1,2 mm 5 m/s 738 mmHg 73%
    16:00 +28°C° 0,3 mm 4 m/s 738 mmHg 75%
    17:00 +28°C° 0,3 mm 3 m/s 738 mmHg 77%
    18:00 +27°C° 0,3 mm 3 m/s 738 mmHg 80%
    19:00 +26°C° 0,2 mm 3 m/s 738 mmHg 83%
    20:00 +25°C° 0,2 mm 3 m/s 738 mmHg 86%
    21:00 +22°C° 0,2 mm 3 m/s 738 mmHg 89%
    22:00 +23°C° 0 mm 2 m/s 738 mmHg 90%
    23:00 +21°C° 0 mm 2 m/s 738 mmHg 91%

    21 Juillet, Samedi

    Heure Température Précipitation Vent Pression Humidité
    00:00 +21°C° 0 mm 2 m/s 738 mmHg 92%
    01:00 +20°C° 0 mm 2 m/s 738 mmHg 93%
    02:00 +20°C° 0 mm 2 m/s 738 mmHg 93%
    03:00 +20°C° 0 mm 2 m/s 738 mmHg 93%
    04:00 +20°C° 0,1 mm 2 m/s 738 mmHg 93%
    05:00 +20°C° 0,1 mm 2 m/s 739 mmHg 93%
    06:00 +22°C° 0,1 mm 1 m/s 739 mmHg 93%
    07:00 +23°C° 0,5 mm 2 m/s 739 mmHg 89%
    08:00 +24°C° 0,5 mm 2 m/s 739 mmHg 85%
    09:00 +25°C° 0,5 mm 2 m/s 739 mmHg 81%
    10:00 +26°C° 1,3 mm 2 m/s 739 mmHg 78%
    11:00 +27°C° 1,3 mm 3 m/s 739 mmHg 75%
    12:00 +28°C° 1,3 mm 3 m/s 739 mmHg 72%
    13:00 +28°C° 0,4 mm 3 m/s 739 mmHg 70%
    14:00 +28°C° 0,4 mm 4 m/s 739 mmHg 69%
    15:00 +29°C° 0,4 mm 4 m/s 739 mmHg 68%
    16:00 +29°C° 0,5 mm 3 m/s 739 mmHg 71%
    17:00 +28°C° 0,5 mm 3 m/s 739 mmHg 74%
    18:00 +28°C° 0,5 mm 3 m/s 739 mmHg 78%
    19:00 +26°C° 0,4 mm 3 m/s 739 mmHg 81%
    20:00 +25°C° 0,4 mm 3 m/s 739 mmHg 84%
    21:00 +22°C° 0,4 mm 3 m/s 739 mmHg 88%
    22:00 +22°C° 0 mm 3 m/s 739 mmHg 89%
    23:00 +21°C° 0 mm 3 m/s 739 mmHg 91%

    22 Juillet, Dimanche

    Heure Température Précipitation Vent Pression Humidité
    00:00 +21°C° 0 mm 2 m/s 739 mmHg 92%
    01:00 +21°C° 0 mm 2 m/s 739 mmHg 93%
    02:00 +20°C° 0 mm 2 m/s 739 mmHg 93%
    03:00 +20°C° 0 mm 2 m/s 739 mmHg 94%
    04:00 +20°C° 0 mm 2 m/s 739 mmHg 94%
    05:00 +21°C° 0 mm 2 m/s 739 mmHg 94%
    06:00 +21°C° 0 mm 2 m/s 739 mmHg 94%
    07:00 +22°C° 0,1 mm 3 m/s 739 mmHg 90%
    08:00 +24°C° 0,1 mm 3 m/s 739 mmHg 86%
    09:00 +26°C° 0,1 mm 3 m/s 739 mmHg 82%
    10:00 +27°C° 0,3 mm 3 m/s 739 mmHg 78%
    11:00 +28°C° 0,3 mm 4 m/s 739 mmHg 73%
    12:00 +29°C° 0,3 mm 4 m/s 739 mmHg 69%
    13:00 +29°C° 0,7 mm 4 m/s 739 mmHg 68%
    14:00 +29°C° 0,7 mm 4 m/s 739 mmHg 68%
    15:00 +29°C° 0,7 mm 4 m/s 738 mmHg 67%
    16:00 +29°C° 0,6 mm 4 m/s 738 mmHg 70%
    17:00 +29°C° 0,6 mm 3 m/s 738 mmHg 74%
    18:00 +28°C° 0,6 mm 3 m/s 738 mmHg 77%
    19:00 +27°C° 0,4 mm 2 m/s 739 mmHg 80%
    20:00 +25°C° 0,4 mm 2 m/s 739 mmHg 83%
    21:00 +24°C° 0,4 mm 2 m/s 739 mmHg 87%
    22:00 +23°C° 0,3 mm 2 m/s 739 mmHg 89%
    23:00 +23°C° 0,3 mm 2 m/s 739 mmHg 90%

    23 Juillet, Lundi

    Heure Température Précipitation Vent Pression Humidité
    00:00 +21°C° 0,3 mm 2 m/s 739 mmHg 92%
    01:00 +21°C° 0,4 mm 2 m/s 739 mmHg 93%
    02:00 +21°C° 0,4 mm 2 m/s 739 mmHg 94%
    03:00 +21°C° 0,4 mm 2 m/s 739 mmHg 94%
    04:00 +21°C° 0 mm 2 m/s 739 mmHg 94%
    05:00 +21°C° 0 mm 2 m/s 739 mmHg 94%
    06:00 +21°C° 0 mm 2 m/s 739 mmHg 94%
    07:00 +24°C° 0,2 mm 2 m/s 739 mmHg 90%
    08:00 +25°C° 0,2 mm 2 m/s 739 mmHg 86%
    09:00 +26°C° 0,2 mm 3 m/s 740 mmHg 83%
    10:00 +27°C° 0,9 mm 3 m/s 740 mmHg 79%
    11:00 +28°C° 0,9 mm 3 m/s 739 mmHg 76%
    12:00 +28°C° 0,9 mm 3 m/s 739 mmHg 72%
    13:00 +28°C° 0,6 mm 3 m/s 739 mmHg 72%
    14:00 +29°C° 0,6 mm 3 m/s 739 mmHg 71%
    15:00 +29°C° 0,6 mm 4 m/s 739 mmHg 71%
    16:00 +29°C° 1 mm 3 m/s 739 mmHg 73%
    17:00 +28°C° 1 mm 3 m/s 739 mmHg 75%
    18:00 +28°C° 1 mm 2 m/s 740 mmHg 78%
    19:00 +27°C° 1,8 mm 3 m/s 740 mmHg 82%
    20:00 +25°C° 1,8 mm 3 m/s 740 mmHg 86%
    21:00 +24°C° 1,8 mm 3 m/s 740 mmHg 89%
    22:00 +22°C° 0 mm 3 m/s 740 mmHg 91%
    23:00 +22°C° 0 mm 3 m/s 740 mmHg 92%
    Voir plus